CZ-4 DEB, 35332

Orbit data source: Space-Track

CZ-4 DEB, 35332 is space debris in SSO originally from a launch on Thu, 14 Oct 1999 UTC launched from the Taiyaun Space Center, China (TSC). Debris objects in space refer to the collection of defunct objects orbiting the Earth. Examples of debris include non-operational satellites, rocket bodies, and fragments generated from explosions, collisions, or faulty payload assembly.

Loading next visibility...
Identifier
35332, 1999-057SL
Orbit
SSO
Country
Flag of CNCN / PRC
Related business
Manufacturer
Unknown
Mission
Spacecraft
Bus & Motor
Unknown
Mass
Unknown
Launch date (UTC)
1999-10-14 (26 years ago)
Launch vehicle
Unknown
Launch site
Taiyaun Space Center, China (TSC)
Object type
Payload
Rocket body
Debris
Shape & HBR
Unknown shape, 0.1 m
Radar Cross Section
Small (<0.1 m²)

Expand to show TLE details & history
Last TLE update: 3 days ago

TLE from 3 days ago
0 CZ-4 DEB
1 35332U 99057SL  26034.28583626  .00000258  00000-0  11304-3 0  9998
2 35332  98.2439 207.2139 0120859 206.7718 152.7193 14.27286716198788
Epoch: 2026-02-03T06:51Z
TLE epoch observation values (Epoch: 2026-02-03T06:51:36.252Z)
Latitude
-0.00005°
Longitude
-29.1561°
Altitude
881.1 km
Speed
7.372 km/s
True Right ascension
13h 48m 51s
True Declination
0° 00' 00"
Sunlit
Object was in daylight at epoch
Visualization orbit readout
Latitude
Unknown
Longitude
Unknown
Altitude
Unknown
Speed
Unknown
Apparent Right ascension
Unknown
Apparent Declination
Unknown
Sunlit
N/A
Visualization observer readout
Local Sidereal Time
10:51:46
Azimuth
Unknown
Elevation
Unknown
Doppler factor
Unknown
Orbital elements
Apogee altitude
884.67 km
Perigee altitude
711.212 km
Semi-major axis
7,176.078 km
Eccentricity
0.01209
Inclination
98.2439°
RAAN
207.2139°
Arg. of periapsis
206.7718°
True anomaly
153.34566°
Mean anomaly
152.7193°
Eccentric anomaly
153.03332°
Mean motion
3.57036 °/min
Orbital period
100.83 mins
BSTAR
0.00011304
Loading maneuver chart data...
Computing Atmospheric mass density...
Loading historical data...
Loading historical data...
Loading historical data...
Loading historical data...
Loading historical data...
Loading historical data...
Loading historical data...

Documentation

Showing up to 5 results
|